Date,TemperatureHighF,TemperatureAvgF,TemperatureLowF,DewpointHighF,DewpointAvgF,DewpointLowF,HumidityHigh,HumidityAvg,HumidityLow,PressureMaxIn,PressureMinIn,WindSpeedMaxMPH,WindSpeedAvgMPH,GustSpeedMaxMPH,PrecipitationSumIn
2013-8-1,86.7,73.8,61.2,66.4,61.0,56.0,83,66,42,30.01,29.79,10,4,0,0.00
2013-8-2,71.2,66.0,60.8,61.6,57.5,53.5,84,74,62,29.98,29.80,10,4,0,0.34
2013-8-3,76.8,67.1,55.0,55.7,53.1,50.5,88,63,41,30.12,29.99,12,4,0,0.00
2013-8-4,77.5,67.2,55.8,61.3,55.2,48.3,77,66,50,30.15,29.87,14,5,0,0.00
2013-8-5,87.3,75.5,67.5,68.4,63.1,58.8,90,68,40,29.87,29.75,9,4,0,0.00
2013-8-6,88.0,75.6,63.7,65.8,61.7,57.8,85,64,44,29.79,29.66,14,6,0,0.00
2013-8-7,80.6,69.5,59.7,60.8,58.1,55.8,87,68,50,29.93,29.77,14,4,0,0.00
2013-8-8,80.2,68.5,60.1,66.1,59.8,53.9,85,74,59,29.94,29.86,11,5,0,0.01
2013-8-9,82.4,70.6,59.0,61.6,56.4,53.4,90,64,38,30.06,29.94,9,4,0,0.00
2013-8-10,74.1,65.7,58.1,63.4,58.2,52.0,89,77,63,30.11,29.95,8,3,0,0.55
2013-8-11,79.7,69.9,62.1,66.4,62.5,58.3,90,78,64,30.02,29.91,8,4,0,1.74
2013-8-12,80.1,70.0,60.3,61.9,58.9,55.4,87,69,54,30.03,29.96,8,4,0,0.00
2013-8-13,76.5,66.9,56.7,59.6,54.0,48.3,87,65,42,30.11,30.02,9,4,0,0.00
2013-8-14,71.8,62.1,52.7,60.0,54.2,47.7,87,76,64,30.11,30.01,9,3,0,0.00
2013-8-15,67.1,61.8,57.0,59.6,56.5,53.5,89,83,76,30.06,29.99,10,4,0,0.00
2013-8-16,69.8,62.7,54.7,60.6,57.0,51.8,91,82,72,30.10,30.04,10,4,0,0.00
2013-8-17,79.0,67.6,57.0,64.2,59.1,53.5,88,75,59,30.08,29.98,17,6,0,0.00
2013-8-18,79.9,68.8,57.4,64.3,59.1,53.2,86,72,57,30.01,29.88,18,7,0,0.00
2013-8-19,86.9,75.1,63.3,72.4,66.0,58.9,86,74,61,29.92,29.77,14,6,0,0.00
2013-8-20,90.5,77.9,66.6,75.8,69.8,63.6,90,77,52,29.80,29.73,10,4,0,0.00
2013-8-21,82.2,76.0,72.5,72.7,69.4,66.9,87,80,72,29.91,29.74,11,5,0,0.02
2013-8-22,82.2,75.0,67.3,69.6,66.2,62.6,91,75,60,30.02,29.91,12,6,0,0.01
2013-8-23,86.2,75.5,64.6,74.0,67.4,60.6,89,77,64,30.02,29.83,13,6,0,0.00
2013-8-24,88.2,78.3,70.9,76.8,70.6,64.9,87,78,68,29.91,29.80,21,11,0,0.16
2013-8-25,91.4,81.6,72.9,77.7,72.6,68.1,85,75,61,29.89,29.83,18,9,0,0.00
2013-8-26,91.4,81.9,72.1,77.2,72.4,67.0,84,74,62,29.90,29.74,18,8,0,0.00
2013-8-27,94.8,83.2,72.7,77.2,71.7,65.8,82,69,55,29.82,29.72,9,4,0,0.00
2013-8-28,91.9,82.9,74.1,79.1,74.0,70.9,90,76,59,29.90,29.81,14,4,0,0.00
2013-8-29,92.1,80.9,69.3,76.8,71.2,65.7,89,74,55,29.89,29.76,14,5,0,0.00
2013-8-30,86.4,79.1,70.9,72.8,69.5,65.1,88,73,56,29.85,29.76,13,5,0,0.00
2013-8-31,91.6,77.5,64.2,74.2,68.3,60.9,90,75,54,29.80,29.65,10,4,0,0.74